Tracking 30061 objects as of 9-Dec-2024
HD Live streaming from Space Station
objects crossing your sky now

STARLINK-30917

Track STARLINK-30917 now!
10-day predictions
STARLINK-30917 is classified as:


NORAD ID: 58419
Int'l Code: 2023-180T
Perigee: 565.3 km
Apogee: 567.2 km
Inclination: 43.0 °
Period: 95.8 minutes
Semi major axis: 6937 km
RCS: Unknown
Launch date: November 22, 2023
Source: United States (US)
Launch site: AIR FORCE EASTERN TEST RANGE (AFETR)
Your satellite tracking list
Your tracking list is empty




NASA's NSSDC Master Catalog

Two Line Element Set (TLE):
1 58419U 23180T   24343.36952837  .00000371  00000-0  42574-4 0  9997
2 58419  43.0049  15.3843 0001356 253.7000 106.3693 15.02520934 58940
Source of the keplerian elements: AFSPC